Regional Weather Roundup
Issued by NWS

Home | Current Version | Previous Version | Text Only | Print | Product List | Glossary On
Versions: 1 2 3 4 5 6 7 8 9 10 11 12 13 14 15 16 17 18 19 20 21 22 23 24 25 26 27
000
ASCA42 TJSJ 271310
RWRPR
PUERTO RICO/U.S. VIRGIN ISLANDS HOURLY WEATHER ROUNDUP
NATIONAL WEATHER SERVICE SAN JUAN PR
900 AM AST WED JUL 27 2016

PRZ001-004-271400-
PUERTO RICO

CITY           SKY/WX    TMP DP  RH WIND       PRES   REMARKS
SAN JUAN LMM   MOSUNNY   86  79  79 E14       30.02S HX  99
AGUADILLA      SUNNY     82  75  78 E12       30.04R
CEIBA          PTSUNNY   84  79  84 E10       30.05S HX  96
$$

PRZ006-007-271400-
U.S. VIRGIN ISLANDS

CITY           SKY/WX    TMP DP  RH WIND       PRES   REMARKS
CHARLOTTE AMA  MOSUNNY   88  79  74 SE13      30.02  HX 102
CHRISTIANSTED  MOSUNNY   88  79  74 E15       30.03S HX 102
$$

HOURLY WEATHER ROUNDUP FOR THE NEWS MEDIA

CITY           SKY/WX    TMP DP  RH WIND       PRES   REMARKS
ORLANDO        SUNNY     84  76  76 CALM      30.11R HX  93
NEW YORK       MOSUNNY   82  60  47 NE7       29.96S
NEWARK         MOSUNNY   82  61  48 NE8       29.95F
CHICAGO        MOSUNNY   76  66  71 CALM      30.02S
HARTFORD       SUNNY     81  62  52 VRB3      29.93S
BOSTON         MOSUNNY   81  61  50 NE5       29.93S
DALLAS         PTSUNNY   82  74  76 S6        29.96R
PHILADELPHIA   MOSUNNY   82  63  52 NE8G20    29.97R
LOS ANGELES    PTCLDY    69  65  86 NW3       29.89R
WASHINGTON DC  PTSUNNY   82  68  62 NW8       29.98R



USA.gov is the U.S. government's official web portal to all federal, state and local government web resources and services.